Location: Csohesd
(46.2500°N, 22.6167°E)
Time: 04:41:57
(UTC+00:00)

Cosmos 1544 Rocket - Pass Details

Date: 21 October 2021
Orbit: 603 x 632 km, 82.5° (Epoch: 30 November)

Event Time Altitude Azimuth Distance (km) Brightness Sun altitude
Rises 16:29:41 0° 169° (S) 2,909 6.9 -10.6°
Reaches altitude 10° 16:31:59 10° 162° (SSE) 2,008 6.0 -11.0°
Maximum altitude 16:36:11 42° 92° (E) 908 3.9 -11.7°
Drops below altitude 10° 16:40:24 10° 22° (NNE) 2,022 5.9 -12.4°
Sets 16:42:44 0° 16° (NNE) 2,933 6.8 -12.8°
